GW3697 Weather Reports


time (UTC)temp
C
wind
direction
speed
KPH
gust
KPH
rain 1hr
cm
rain 24hr
cm
rain mn
cm
humidity
%
barometer
mb
20260502233011 8 246 1.6 4.8 0.00 0.00 0.00 50 1016.5
20260502231517 8 264 0.0 3.2 0.00 0.00 0.00 51 1016.6
20260502230021 8 264 0.0 6.4 0.00 0.00 0.00 51 1016.7
20260502224525 8 284 1.6 8.0 0.00 0.00 0.00 49 1016.7
20260502223007 8 239 1.6 11.3 0.00 0.00 0.00 48 1016.7
20260502221511 8 246 4.8 16.1 0.00 0.00 0.00 44 1016.7
20260502220025 8 288 3.2 11.3 0.00 0.00 0.00 46 1016.7
20260502214523 8 316 1.6 11.3 0.00 0.00 0.00 49 1016.7
20260502213031 8 276 3.2 9.7 0.00 0.00 0.00 44 1016.6
20260502211510 8 269 3.2 14.5 0.00 0.00 0.00 46 1016.7
20260502210019 8 248 1.6 11.3 0.00 0.00 0.00 49 1016.9
20260502204519 8 266 3.2 14.5 0.00 0.00 0.00 45 1016.9
20260502203026 8 281 0.0 12.9 0.00 0.00 0.00 47 1017.0
20260502201535 8 285 3.2 14.5 0.00 0.00 0.00 47 1017.1
20260502200012 8 244 4.8 12.9 0.00 0.00 0.00 44 1017.3
20260502194533 8 338 4.8 14.5 0.00 0.00 0.00 43 1017.4
20260502193029 8 241 3.2 20.9 0.00 0.00 0.00 47 1017.5
20260502191507 8 271 3.2 14.5 0.00 0.00 0.00 46 1017.5
20260502190026 8 236 4.8 19.3 0.00 0.00 0.00 44 1017.8
20260502184519 8 355 6.4 14.5 0.00 0.00 0.00 41 1017.8
20260502183007 8 269 3.2 11.3 0.00 0.00 0.00 44 1017.8
20260502181503 8 360 3.2 12.9 0.00 0.00 0.00 48 1017.9
20260502163039 7 269 3.2 14.5 0.00 0.00 0.00 48 1018.5
20260502161520 7 15 4.8 14.5 0.00 0.00 0.00 54 1018.5
20260502151514 7 331 9.7 17.7 0.00 0.00 0.00 56 1018.4
20260502123022 3 360 8.0 16.1 0.00 0.00 0.00 73 1018.3
20260502121526 2 345 4.8 12.9 0.00 0.00 0.00 76 1018.2
20260502114517 1 299 1.6 8.0 0.00 0.00 0.00 80 1018.1
20260502113022 0 355 0.0 8.0 0.00 0.00 0.00 83 1018.0
20260502111527 0 311 0.0 3.2 0.00 0.00 0.00 87 1017.9
20260502110024 -1 355 0.0 1.6 0.00 0.03 0.00 87 1017.6
20260502104514 -1 355 0.0 0.0 0.00 0.03 0.00 86 1017.7
20260502103018 -1 355 0.0 0.0 0.00 0.03 0.00 85 1017.8
20260502101503 0 355 0.0 0.0 0.00 0.03 0.00 83 1017.6
20260502091503 1 355 0.0 0.0 0.00 0.03 0.00 79 1017.3
20260502071515 3 5 0.0 8.0 0.00 0.08 0.00 75 1017.0
20260502070020 3 5 1.6 6.4 0.00 0.13 0.00 76 1017.0
20260502064535 3 5 1.6 8.0 0.00 0.15 0.00 78 1017.1
20260502063007 3 5 0.0 3.2 0.00 0.18 0.00 80 1017.1
20260502061510 3 5 0.0 1.6 0.00 0.18 0.00 80 1017.1
20260502060018 3 5 1.6 6.4 0.00 0.18 0.00 79 1017.2
20260502054520 3 5 3.2 8.0 0.00 0.20 0.00 79 1017.3
20260502053025 3 355 1.6 8.0 0.00 0.20 0.00 80 1017.3
20260502051515 3 249 0.0 1.6 0.00 0.20 0.00 82 1017.4
20260502050016 3 292 0.0 3.2 0.00 0.20 0.00 82 1017.3
20260502044520 3 355 0.0 3.2 0.00 0.23 0.00 85 1017.3
20260502043022 3 355 0.0 1.6 0.00 0.25 0.00 85 1017.2
20260502041525 2 355 0.0 1.6 0.00 0.30 0.00 86 1016.9
20260502040012 2 355 0.0 0.0 0.00 0.36 0.00 86 1016.8
20260502034516 2 355 0.0 0.0 0.00 0.38 0.36 86 1016.8
20260502033019 2 355 0.0 0.0 0.00 0.41 0.36 83 1016.8
20260502031522 2 355 0.0 0.0 0.00 0.41 0.36 82 1016.6
20260502030024 2 355 0.0 0.0 0.00 0.48 0.36 81 1016.5
20260502024515 3 355 0.0 0.0 0.00 0.51 0.36 79 1016.5
20260502023014 3 355 0.0 0.0 0.00 0.51 0.36 77 1016.5
20260502021519 4 355 0.0 1.6 0.00 0.51 0.36 76 1016.5
20260502020024 5 355 0.0 0.0 0.00 0.51 0.36 75 1016.2
20260502014547 5 355 0.0 9.7 0.00 0.51 0.36 72 1016.2
20260502013028 5 349 0.0 9.7 0.00 0.51 0.36 73 1016.1
20260502011516 5 351 4.8 14.5 0.00 0.51 0.36 73 1016.0
20260502010019 5 342 3.2 8.0 0.00 0.51 0.36 73 1015.9
20260502004524 5 349 0.0 6.4 0.00 0.51 0.36 74 1015.8
20260502003013 5 355 0.0 4.8 0.00 0.51 0.36 74 1015.9
20260502001518 6 340 0.0 4.8 0.00 0.51 0.36 76 1015.7
20260502000038 6 318 1.6 6.4 0.00 0.51 0.36 75 1015.6
20260501234504 6 252 0.0 6.4 0.00 0.51 0.36 77 1015.5